Flag for Poland Weather past 2 weeks in Olsztyn, Poland

Now
56 °F

Cool.


Feels Like: 56 °F
Forecast: 46 / 63 °F
Wind: 3 mph from Southeast

Location: Ketrzyn

Current Time: May 25, 2015 at 7:58:40 AM

Latest Report: May 25, 2015 at 7:00 AM


Visibility: 19 mi

Pressure: 30.02 "Hg

Humidity: 76%

Dew point: 48 °F

Location of OlsztynLocation

Historic Weather in Olsztyn — Graph

°F

Olsztyn temperature yesterday

Maximum temperature yesterday: 64 °F (at 5:00 PM)
Minimum temperature yesterday: 45 °F (at 4:00 AM)
Average temperature yesterday: 56 °F

Past Weeks' High & Low Weather Summary

 TemperatureHumidityPressure
High74 °F (May 19, 2:00 PM)97% (May 21, 2:00 AM)30.35 "Hg (May 21, 2:00 AM)
Low35 °F (May 16, 4:00 AM)37% (May 15, 4:00 PM)29.66 "Hg (May 19, 4:00 PM)
Average53 °F71%30.00 "Hg
* Reported May 10 6:00 AM — May 25 6:00 AM, Olsztyn, Weather by CustomWeather, © 2015

Note: Actual official high and low records may vary slightly from our data, if they occured in-between our weather recording intervals... More about our weather records

Advertising

Olsztyn weather history for previous 24 hours

 ConditionsComfort  
Time TempWeatherWind HumidityBarometerVisibility
6:00 AM
Mon, May 25
51 °FCool.3 mph80%30.03 "Hg19 mi
4:00 AM48 °FCool.3 mph84%30.03 "Hg19 mi
3:00 AM48 °FCool.5 mph89%30.04 "Hg14 mi
2:00 AM47 °FCool.2 mph92%30.06 "Hg12 mi
1:00 AM47 °FCool.1 mph91%30.07 "Hg12 mi
12:00 AM48 °FCool.1 mph89%30.08 "Hg16 mi
10:00 PM
Sun, May 24
53 °FCool.1 mph75%30.07 "Hg22 mi
9:00 PM56 °FCool.2 mph63%30.06 "Hg18 mi
8:00 PM60 °FRefreshingly cool.3 mph56%30.05 "Hg22 mi
7:00 PM64 °FMild.2 mph46%30.05 "Hg18 mi
6:00 PM64 °FMild.2 mph43%30.06 "Hg25 mi
5:00 PM64 °FMild.2 mph41%30.07 "Hg16 mi
4:00 PM64 °FMild.3 mph41%30.08 "Hg19 mi
3:00 PM64 °FMild.3 mph44%30.09 "Hg16 mi
2:00 PM63 °FMild.3 mph49%30.09 "Hg19 mi
1:00 PM60 °FRefreshingly cool.3 mph52%30.10 "Hg19 mi
12:00 PM59 °FRefreshingly cool.2 mph58%30.10 "Hg16 mi
11:00 AM57 °FCool.1 mph64%30.10 "Hg16 mi
10:00 AM56 °FCool.2 mph68%30.10 "Hg11 mi
9:00 AM54 °FCool.2 mph71%30.10 "Hg12 mi
8:00 AM52 °FCool.2 mph81%30.10 "Hg13 mi
7:00 AM48 °FCool.1 mph91%30.10 "Hg13 mi
Weather by CustomWeather, © 2015

See weather overviewHow to use our weather pages